Theta_e
349 347 343 345 345 347 344 347 349 347 346 346 349 348 348 343 345 347 341 344 343 340 339 343 342 339 341 342 342 341 342 341 341 339 342 340 339 339 339 339 339 336 334
341 346 343 341 343 344 342 344 345 348 348 347 349 348 347 345 344 346 345 345 343 340 338 342 342 342 341 342 341 342 342 343 341 340 340 340 337 339 339 338 340 340 336
345 342 340 341 342 344 345 342 345 345 347 348 347 347 347 347 346 346 344 346 343 342 339 339 343 343 341 346 343 342 340 340 341 339 339 338 338 339 338 336 338 338 338
348 344 343 344 343 343 342 340 342 344 347 347 347 348 347 346 345 345 344 346 345 343 341 338 341 341 342 345 346 344 340 340 340 339 338 338 339 338 337 336 337 339 336
346 346 345 344 343 343 342 343 342 344 345 345 347 347 348 347 347 346 346 346 347 346 344 342 339 339 338 339 341 343 342 338 340 340 338 337 338 338 338 338 337 338 337
345 344 343 343 344 344 343 343 342 344 344 345 347 348 348 347 347 346 347 348 348 347 346 343 341 341 340 338 339 340 340 338 337 340 339 338 338 338 338 338 338 337 337
344 343 341 341 341 345 344 341 342 342 343 344 346 346 346 347 347 347 347 348 347 347 345 345 343 342 341 338 340 340 340 340 338 338 337 339 338 338 338 339 338 338 337
343 341 342 341 340 342 344 342 343 343 342 340 344 342 341 343 344 343 346 347 347 347 346 346 345 343 343 339 340 341 340 340 339 338 340 338 338 338 340 340 339 338 338
340 339 339 340 340 341 344 343 341 343 342 342 343 340 340 340 342 345 346 348 347 347 346 346 346 343 343 341 341 340 340 340 339 339 340 339 339 339 339 340 340 338 338
339 338 339 340 340 340 343 343 343 342 342 343 344 343 342 342 340 339 341 344 346 347 346 345 345 345 343 344 343 341 341 339 340 338 339 340 339 339 340 339 340 339 339
339 338 337 339 340 340 341 343 343 344 342 342 342 342 343 342 341 340 341 340 342 343 346 347 346 345 344 343 343 343 341 340 340 339 339 339 338 339 339 339 339 338 339
340 338 338 340 341 341 342 342 344 343 343 342 341 340 340 342 341 341 340 340 340 341 343 345 345 346 345 343 343 342 344 343 344 339 338 339 339 336 337 337 339 338 337
341 339 339 341 342 342 342 342 342 343 343 342 341 339 339 340 341 339 340 340 339 341 344 344 343 344 344 343 343 343 342 344 343 341 340 339 340 338 336 338 339 339 338
339 339 339 340 341 342 341 341 342 343 344 342 341 338 339 340 340 337 341 340 337 338 342 343 342 343 343 343 342 343 341 341 341 341 339 340 339 340 338 338 340 340 339
339 339 339 340 340 341 341 342 341 341 342 342 341 339 340 340 340 341 341 339 339 337 336 339 341 342 342 341 342 343 342 341 341 340 340 338 338 337 336 339 339 339 337
340 340 341 341 341 341 341 341 340 341 341 341 340 339 340 340 339 340 339 339 338 339 337 339 340 341 341 338 342 341 340 335 337 339 338 337 335 335 337 338 332 333 336
339 340 340 341 340 340 340 339 339 340 340 339 340 340 340 341 338 337 338 337 338 338 336 339 340 340 339 341 338 335 337 332 330 337 337 333 333 336 336 335 334 332 331
338 340 340 339 340 340 340 340 340 340 339 339 338 336 335 336 335 338 338 337 338 338 337 337 339 337 339 336 336 332 332 336 336 335 335 335 337 336 335 334 334 331 327
339 339 338 338 339 339 339 338 338 337 336 337 337 338 337 335 334 335 333 332 332 334 336 337 336 336 336 336 334 331 332 332 331 329 330 331 330 328 325 323 320 319 319
339 336 335 335 335 335 335 334 333 333 332 332 332 332 332 332 330 328 328 329 330 329 334 333 333 333 333 333 330 327 322 321 320 318 317 318 318 318 318 317 315 313 312
337 336 334 334 334 334 335 334 334 333 333 332 330 330 331 332 331 330 331 330 329 328 328 333 333 333 332 331 329 325 321 320 320 320 318 315 314 313 312 313 313 313 313
333 333 333 332 333 332 331 331 331 330 329 328 328 328 328 330 330 329 329 328 328 328 329 328 331 330 327 326 327 329 323 319 318 319 318 316 315 314 314 315 314 314 311
332 330 330 332 331 330 330 329 329 328 327 326 325 325 324 323 323 324 324 326 327 329 329 330 329 323 320 321 320 320 323 322 316 315 316 317 317 317 315 315 315 311 307
329 327 326 327 330 331 330 329 328 326 324 321 319 318 321 318 314 315 316 315 313 316 320 321 319 314 312 316 316 316 316 316 314 313 314 311 311 311 312 310 308 307 306
324 323 324 326 328 330 327 324 323 322 318 315 316 318 317 311 308 310 310 311 310 310 310 309 309 308 308 310 312 312 311 314 311 309 308 309 309 308 307 306 306 306 307
317 318 319 320 320 320 319 319 318 314 312 313 315 316 313 311 313 313 312 312 311 310 310 310 309 308 308 309 310 309 308 308 307 309 307 309 308 308 307 308 307 307 307
Wind_Speed
15 15 12 10 9 8 7 9 10 13 11 13 13 13 12 15 17 14 13 21 20 19 18 19 19 19 19 17 16 16 16 15 14 14 15 14 13 14 14 14 12 11 11
18 20 16 12 11 12 10 11 11 14 13 16 12 14 12 12 19 17 15 20 21 20 19 19 19 19 19 19 18 17 16 17 16 16 16 15 14 14 15 15 14 13 10
19 18 18 16 13 15 11 12 12 11 13 11 12 13 13 17 16 16 17 28 25 20 21 21 20 19 19 19 18 18 18 17 17 16 17 17 16 17 16 15 16 15 13
15 17 18 18 16 15 17 16 14 13 12 11 11 12 12 12 18 17 24 29 24 22 23 22 22 21 20 19 18 18 18 19 17 17 18 18 19 18 18 17 16 14 14
17 18 20 19 17 18 19 18 17 15 14 13 9 10 13 12 10 15 23 29 22 20 23 25 25 24 22 21 19 19 18 17 18 19 18 19 19 19 19 19 18 17 16
18 20 20 18 18 19 20 18 17 16 13 11 9 9 11 11 15 17 18 18 20 21 22 25 25 26 24 22 21 21 23 19 20 21 21 20 20 20 20 21 20 19 18
19 20 20 19 19 21 22 22 19 18 17 11 10 8 8 11 12 12 16 18 19 19 20 23 23 27 26 26 23 24 25 24 22 24 22 23 21 20 21 23 23 22 20
17 19 21 22 22 23 24 23 22 19 17 16 7 4 1 4 12 12 12 15 17 19 20 21 24 24 27 28 26 26 27 26 23 24 22 22 21 21 20 23 23 22 21
15 16 21 22 23 24 26 26 27 23 19 18 15 5 2 4 2 3 12 15 15 19 21 23 25 22 26 30 27 24 27 28 25 24 25 21 21 20 20 21 23 22 22
15 15 17 20 21 23 25 26 25 27 22 17 20 14 4 2 2 1 2 2 9 16 20 21 25 24 25 30 29 28 29 31 27 25 26 22 21 21 19 18 19 20 23
17 18 18 17 21 22 23 26 26 27 24 21 19 11 11 6 6 3 2 3 8 13 19 22 23 24 24 27 30 29 24 25 27 27 24 20 17 15 15 17 18 21 21
10 14 15 15 19 21 23 23 24 24 25 25 22 14 12 7 6 4 2 2 8 16 17 20 21 23 22 23 25 23 23 24 22 24 23 19 16 15 16 18 20 19 21
4 9 13 13 17 19 20 22 23 24 23 26 24 21 14 11 13 10 4 2 4 11 6 15 18 18 18 19 20 19 20 19 20 20 21 18 18 19 20 21 18 18 18
2 4 8 10 14 16 18 19 22 25 26 25 25 21 19 17 16 13 6 1 3 4 7 6 12 18 16 17 17 17 17 17 21 17 19 17 18 19 20 18 17 16 14
3 0 4 8 11 13 15 18 20 23 24 24 24 23 19 18 18 14 6 3 7 3 3 4 4 11 15 10 9 13 14 15 13 14 13 12 12 13 15 12 12 12 14
2 1 1 4 5 8 11 14 15 19 21 17 19 19 19 18 17 13 7 10 10 12 3 6 5 7 12 11 6 5 8 10 11 7 10 9 10 12 11 11 10 11 11
9 8 5 2 2 5 8 11 12 14 15 17 15 13 13 17 15 13 7 11 17 6 7 5 5 7 8 10 7 0 5 12 10 11 13 10 10 10 10 10 10 10 9
12 12 13 11 10 10 10 10 11 14 15 12 12 10 10 12 9 8 9 4 4 5 7 7 7 5 7 4 5 7 10 11 10 13 13 8 8 8 9 9 8 7 7
12 14 13 15 15 15 15 15 15 15 17 16 17 17 20 20 17 14 14 13 14 12 9 4 6 3 2 9 10 8 5 7 6 4 5 6 6 7 7 7 8 6 5
15 16 17 18 18 19 20 21 22 25 25 23 21 20 19 19 18 16 17 13 11 11 14 9 7 7 4 3 8 10 6 8 9 9 9 8 8 8 8 7 7 7 7
17 17 17 17 17 15 12 11 11 10 10 11 11 12 13 11 7 5 4 5 5 6 7 7 4 1 1 4 6 6 7 10 9 7 9 10 9 9 9 8 8 7 6
16 15 15 15 16 16 12 12 12 12 11 11 12 11 10 8 8 6 5 3 3 4 4 5 6 5 3 3 4 7 12 12 3 7 7 9 7 9 8 6 6 5 2
14 14 13 11 13 14 12 12 12 13 14 13 11 10 9 9 9 8 7 6 5 4 8 14 13 11 9 8 8 9 10 6 5 7 11 6 8 11 10 8 7 3 3
14 12 11 10 11 12 10 11 12 13 13 12 11 8 9 11 13 15 18 20 21 21 18 16 15 13 9 6 6 7 9 12 11 7 6 5 8 9 6 5 7 7 4
17 14 13 11 11 15 12 13 15 17 17 15 13 15 16 14 14 15 19 22 22 21 19 19 17 14 12 10 7 6 8 7 4 4 5 4 3 3 1 2 5 6 7
19 17 16 14 15 15 13 13 14 18 21 21 20 18 16 16 14 15 18 17 17 14 12 12 11 11 12 13 12 10 6 8 6 2 6 2 2 3 3 3 5 3 4
Wind_Direction
202 198 203 212 220 218 226 231 231 225 220 222 225 226 227 211 197 212 207 203 208 206 207 197 197 196 197 201 207 211 208 209 211 208 202 201 197 192 191 191 188 185 183
218 218 211 220 228 225 225 238 235 233 225 222 226 230 229 211 204 204 218 203 205 206 213 209 202 202 203 206 210 215 216 217 219 216 217 212 201 203 199 192 198 195 197
234 231 227 223 229 225 223 233 232 229 235 215 218 227 228 221 208 216 220 212 200 217 217 215 212 210 209 211 214 217 222 222 223 222 222 222 218 208 209 204 200 201 202
233 227 228 234 232 228 230 235 228 222 230 220 217 217 215 210 189 210 218 219 233 216 215 220 218 217 216 215 216 221 225 228 228 228 226 227 225 223 216 214 210 208 206
233 231 232 236 231 223 219 221 219 220 220 219 223 210 211 220 197 207 215 223 221 220 225 223 223 222 222 219 218 223 226 234 230 233 231 232 230 227 227 224 219 217 217
240 237 233 235 227 215 217 216 217 218 217 201 204 212 211 212 205 206 219 221 224 230 228 228 227 228 225 226 221 220 224 236 232 231 235 237 236 232 230 229 228 227 226
243 236 234 231 228 216 217 218 218 219 217 204 211 205 222 226 216 211 213 217 224 229 238 226 230 230 230 229 224 224 228 236 237 234 243 240 239 235 235 232 230 229 229
233 235 236 235 228 224 220 218 217 213 218 210 193 152 168 228 224 217 221 226 223 224 229 234 232 239 232 229 225 225 232 235 243 239 244 238 240 239 243 240 236 230 230
254 239 238 236 232 225 221 219 221 218 208 204 199 165 125 220 168 204 221 226 230 232 239 242 245 239 237 232 226 229 236 237 236 238 240 244 240 241 246 242 236 235 231
254 247 240 234 230 224 224 225 223 218 214 202 205 220 202 130 145 310 133 239 246 247 249 250 248 243 239 234 237 243 254 237 238 240 241 246 239 242 249 244 237 236 234
259 246 238 235 232 223 223 227 227 226 220 214 206 202 216 203 161 157 260 327 303 268 253 252 249 244 245 246 242 253 238 234 241 242 242 248 248 245 245 244 238 237 232
252 232 229 234 230 223 223 223 228 231 223 221 215 195 183 173 181 153 219 271 275 286 258 249 245 244 246 246 248 250 245 238 242 239 241 242 237 236 239 245 236 235 233
239 223 221 228 226 225 225 224 230 233 227 223 218 215 206 186 176 168 182 274 277 262 269 245 241 246 247 249 252 251 243 236 239 238 235 238 236 233 239 243 240 239 240
76 189 218 224 222 225 227 229 231 233 230 229 226 220 212 205 195 184 156 58 309 283 239 251 241 241 244 249 252 257 255 245 242 238 240 245 239 235 234 239 241 233 233
13 263 209 218 215 218 224 227 230 233 229 227 219 213 201 191 184 181 181 310 248 285 273 239 253 231 225 243 251 266 266 268 252 236 239 232 237 244 235 226 224 219 225
20 176 177 210 220 219 218 228 231 234 232 210 204 200 200 196 195 190 211 259 271 261 275 210 208 212 213 222 263 285 234 240 241 251 239 229 232 226 215 214 219 221 218
57 83 91 107 180 205 214 208 223 215 212 195 187 185 193 186 176 191 234 251 257 219 222 217 183 180 193 190 167 194 194 210 217 248 244 234 227 212 205 207 207 208 208
65 80 82 76 87 110 132 160 157 133 133 147 166 166 177 163 162 162 196 259 227 246 252 223 150 139 160 175 231 183 239 232 225 220 230 211 200 200 198 203 208 193 174
82 82 84 83 85 98 106 112 123 128 128 131 140 146 155 147 138 145 122 110 82 68 48 85 74 109 132 163 162 163 163 183 168 133 153 168 170 165 161 154 146 150 152
99 92 88 90 94 99 104 107 112 117 116 111 109 112 127 136 130 115 108 105 105 77 68 75 66 71 72 144 177 158 139 145 129 124 127 125 131 136 146 153 148 145 136
107 104 101 100 101 99 102 115 124 126 123 118 111 110 104 108 114 115 105 101 95 82 71 77 83 77 76 177 200 178 176 154 138 145 134 130 141 147 149 148 147 136 119
117 115 107 110 105 97 99 104 113 115 114 117 118 119 120 123 118 126 118 109 107 152 161 203 208 204 195 162 194 192 171 147 123 162 150 148 173 169 174 162 153 138 75
120 108 105 113 113 110 106 112 112 111 108 104 100 100 106 98 97 104 105 107 117 185 224 226 185 146 128 136 120 116 166 168 132 134 153 124 179 181 184 183 188 209 315
122 113 103 107 117 123 126 127 126 121 113 110 97 99 115 103 102 113 112 100 88 81 85 105 112 103 96 120 139 147 152 142 123 113 144 138 150 140 161 208 236 252 253
126 117 109 110 110 130 137 129 128 122 114 108 106 104 114 114 117 114 106 95 87 78 77 79 81 82 86 92 125 145 105 141 77 42 41 104 120 122 224 284 246 235 255
117 113 107 107 114 120 125 137 134 125 114 104 100 108 112 113 111 108 102 97 85 72 80 78 80 72 65 59 50 52 55 57 49 86 32 97 92 18 18 346 308 334 295